Weather History for Dodge City, KS

Change the Weather History Date:

Wednesday, January 16, 2013

  Actual Average Record
Temperature  
Mean Temperature 40 °F -  
Max Temperature 55 °F 41 °F 69 °F (1952)
Min Temperature 25 °F 18 °F -9 °F (1930)
Degree Days  
Heating Degree Days 25    
Moisture  
Dew Point 21 °F    
Average Humidity 54    
Maximum Humidity 75    
Minimum Humidity 21    
Precipitation  
Precipitation 0.00 in - - ()
Sea Level Pressure  
Sea Level Pressure 30.18 in    
Wind  
Wind Speed 11 mph (NW)    
Max Wind Speed 17 mph    
Max Gust Speed 28 mph    
Visibility 10 miles    
Events      
Averages and records for this station are not official NWS values.
T = Trace of Precipitation, MM = Missing Value Source: NWS Daily Summary

Daily Weather History Graph

Daily Weather History Graph

Search for Another Location

Airport:

Trip Planner

Search our weather history database for the weather conditions in past years. The results will help you decide how hot, cold, wet, or windy it might be!

Date:

Astronomy

Jan. 16, 2013 Rise Set
Actual Time 7:53 AM CST 5:46 PM CST
Civil Twilight 7:24 AM CST 6:14 PM CST
Nautical Twilight 6:52 AM CST 6:47 PM CST
Astronomical Twilight 6:21 AM CST 7:18 PM CST
Moon 10:37 AM CST (1/16) 11:32 PM CST (1/16)
Length of Visible Light 10h 49m
Length of Day
9h 52m
Waxing Crescent, 28% of the Moon is Illuminated
Jan 16
Waxing Crescent
Jan 18
First Quarter
Jan 26
Full
Feb 3
Last Quarter
Feb 10
New

Hourly Weather History & Observations

Time (CST) Temp. Windchill Dew Point Humidity Pressure Visibility Wind Dir Wind Speed Gust Speed Precip Events Conditions
12:52 AM 19.9 °F 8.6 °F 12.0 °F 71% 30.19 in 10.0 mi WSW 10.4 mph - N/A   Clear
1:52 AM 21.0 °F 9.9 °F 12.9 °F 71% 30.17 in 10.0 mi WSW 10.4 mph - N/A   Clear
2:52 AM 19.9 °F 9.3 °F 12.0 °F 71% 30.15 in 10.0 mi WSW 9.2 mph - N/A   Clear
3:52 AM 21.9 °F 9.8 °F 12.9 °F 68% 30.14 in 10.0 mi West 12.7 mph - N/A   Partly Cloudy
4:52 AM 21.9 °F 11.0 °F 14.0 °F 72% 30.12 in 10.0 mi West 10.4 mph - N/A   Mostly Cloudy
5:52 AM 28.9 °F 19.8 °F 19.0 °F 67% 30.12 in 10.0 mi WNW 10.4 mph - N/A   Overcast
6:52 AM 28.0 °F 17.5 °F 19.9 °F 72% 30.14 in 10.0 mi WNW 12.7 mph - N/A   Clear
7:52 AM 28.0 °F 18.6 °F 19.9 °F 72% 30.14 in 10.0 mi WNW 10.4 mph - N/A   Clear
8:52 AM 30.9 °F 22.2 °F 21.9 °F 69% 30.16 in 10.0 mi NW 10.4 mph - N/A   Clear
9:52 AM 39.9 °F 32.1 °F 25.0 °F 55% 30.18 in 10.0 mi NNW 13.8 mph 20.7 mph N/A   Scattered Clouds
10:52 AM 44.1 °F 37.4 °F 24.1 °F 45% 30.17 in 10.0 mi NNW 13.8 mph - N/A   Mostly Cloudy
11:52 AM 48.9 °F - 25.0 °F 39% 30.15 in 10.0 mi North 13.8 mph - N/A   Clear
12:52 PM 52.0 °F - 26.1 °F 37% 30.13 in 10.0 mi North 17.3 mph 27.6 mph N/A   Clear
1:52 PM 54.0 °F - 27.0 °F 35% 30.12 in 10.0 mi NNW 16.1 mph 23.0 mph N/A   Clear
2:52 PM 55.0 °F - 26.1 °F 33% 30.12 in 10.0 mi NNW 15.0 mph 23.0 mph N/A   Clear
3:52 PM 55.0 °F - 24.1 °F 30% 30.12 in 10.0 mi NNW 15.0 mph 23.0 mph N/A   Clear
4:52 PM 53.1 °F - 21.0 °F 29% 30.15 in 10.0 mi NNW 10.4 mph - N/A   Clear
5:52 PM 42.1 °F 36.6 °F 21.0 °F 43% 30.18 in 10.0 mi NW 9.2 mph - N/A   Clear
6:52 PM 37.0 °F 30.4 °F 21.0 °F 52% 30.22 in 10.0 mi NW 9.2 mph - N/A   Clear
7:52 PM 35.1 °F 28.6 °F 21.9 °F 59% 30.25 in 10.0 mi NNW 8.1 mph - N/A   Clear
8:52 PM 34.0 °F 27.2 °F 21.9 °F 61% 30.27 in 10.0 mi NNW 8.1 mph - N/A   Clear
9:52 PM 32.0 °F 24.8 °F 21.9 °F 66% 30.29 in 10.0 mi NNW 8.1 mph - N/A   Clear
10:52 PM 28.9 °F 21.9 °F 21.9 °F 75% 30.31 in 10.0 mi NNW 6.9 mph - N/A   Clear
11:52 PM 30.0 °F 21.1 °F 21.9 °F 72% 30.31 in 10.0 mi North 10.4 mph - N/A   Clear